Weather History for La Grande, OR

Change the Weather History Date:

Wednesday, October 3, 2012

  Actual Average Record
Temperature  
Mean Temperature 46 °F -  
Max Temperature 60 °F 67 °F 87 °F (1987)
Min Temperature 32 °F 35 °F 24 °F (1999)
Degree Days  
Heating Degree Days 19    
Moisture  
Dew Point 16 °F    
Average Humidity 29    
Maximum Humidity 44    
Minimum Humidity 20    
Precipitation  
Precipitation 0.00 in - - ()
Sea Level Pressure  
Sea Level Pressure 30.27 in    
Wind  
Wind Speed 12 mph (NNW)    
Max Wind Speed 20 mph    
Max Gust Speed 24 mph    
Visibility 10 miles    
Events      
Averages and records for this station are not official NWS values.
T = Trace of Precipitation, MM = Missing Value Source: NWS Daily Summary

Daily Weather History Graph

Daily Weather History Graph

Search for Another Location

Airport:

Trip Planner

Search our weather history database for the weather conditions in past years. The results will help you decide how hot, cold, wet, or windy it might be!

Date:

Astronomy

Oct. 03, 2012 Rise Set
Actual Time 6:53 AM PDT 6:27 PM PDT
Civil Twilight 6:23 AM PDT 6:56 PM PDT
Nautical Twilight 5:49 AM PDT 7:31 PM PDT
Astronomical Twilight 5:15 AM PDT 8:05 PM PDT
Moon 8:11 PM PDT (10/3) 10:32 AM PDT (10/3)
Length of Visible Light 12h 32m
Length of Day
11h 34m
Waning Gibbous, 88% of the Moon is Illuminated
Oct 3
Waning Gibbous
Oct 8
Last Quarter
Oct 15
New
Oct 21
First Quarter
Oct 29
Full

Hourly Weather History & Observations

Time (PDT) Temp. Windchill Dew Point Humidity Pressure Visibility Wind Dir Wind Speed Gust Speed Precip Events Conditions
12:15 AM 48.2 °F - 14.0 °F 25% 30.16 in 10.0 mi WNW 13.8 mph - N/A   Clear
12:35 AM 48.2 °F - 12.2 °F 24% 30.16 in 10.0 mi WNW 12.7 mph 18.4 mph N/A   Clear
12:55 AM 46.4 °F 40.4 °F 12.2 °F 25% 30.17 in 10.0 mi WNW 13.8 mph 21.9 mph N/A   Clear
1:15 AM 44.6 °F 38.4 °F 12.2 °F 27% 30.18 in 10.0 mi WNW 12.7 mph 19.6 mph N/A   Clear
1:35 AM 44.6 °F 36.6 °F 10.4 °F 25% 30.19 in 10.0 mi WNW 19.6 mph 24.2 mph N/A   Clear
1:55 AM 44.6 °F 40.2 °F 10.4 °F 25% 30.21 in 10.0 mi NNW 8.1 mph - N/A   Clear
2:15 AM 42.8 °F 36.6 °F 10.4 °F 27% 30.22 in 10.0 mi NNW 11.5 mph 17.3 mph N/A   Clear
2:35 AM 42.8 °F 35.8 °F 12.2 °F 29% 30.22 in 10.0 mi NW 13.8 mph 18.4 mph N/A   Clear
2:55 AM 42.8 °F 35.1 °F 12.2 °F 29% 30.24 in 10.0 mi WNW 16.1 mph - N/A   Clear
3:15 AM 42.8 °F 36.2 °F 10.4 °F 27% 30.24 in 10.0 mi WNW 12.7 mph - N/A   Clear
3:55 AM 37.4 °F 29.8 °F 8.6 °F 30% 30.26 in 10.0 mi North 11.5 mph - N/A   Clear
4:15 AM 37.4 °F 30.3 °F 10.4 °F 33% 30.27 in 10.0 mi NNW 10.4 mph - N/A   Clear
4:35 AM 37.4 °F 30.8 °F 10.4 °F 33% 30.27 in 10.0 mi NNW 9.2 mph - N/A   Clear
4:55 AM 35.6 °F 28.0 °F 10.4 °F 35% 30.27 in 10.0 mi North 10.4 mph - N/A   Clear
5:15 AM 35.6 °F 28.6 °F 12.2 °F 38% 30.28 in 10.0 mi NNW 9.2 mph - N/A   Clear
5:35 AM 35.6 °F 28.6 °F 12.2 °F 38% 30.29 in 10.0 mi NNW 9.2 mph - N/A   Clear
5:55 AM 33.8 °F 26.4 °F 10.4 °F 38% 30.30 in 10.0 mi North 9.2 mph - N/A   Clear
6:15 AM 33.8 °F 26.4 °F 10.4 °F 38% 30.30 in 10.0 mi NNW 9.2 mph - N/A   Clear
6:35 AM 33.8 °F 26.4 °F 10.4 °F 38% 30.31 in 10.0 mi NNW 9.2 mph - N/A   Clear
6:55 AM 32.0 °F 24.2 °F 12.2 °F 44% 30.31 in 10.0 mi NW 9.2 mph - N/A   Clear
7:15 AM 33.8 °F 26.4 °F 12.2 °F 41% 30.32 in 10.0 mi NNW 9.2 mph - N/A   Clear
7:35 AM 33.8 °F 26.4 °F 12.2 °F 41% 30.32 in 10.0 mi NNW 9.2 mph - N/A   Clear
7:55 AM 37.4 °F 30.8 °F 14.0 °F 38% 30.33 in 10.0 mi NNW 9.2 mph - N/A   Clear
8:15 AM 39.2 °F 33.0 °F 15.8 °F 39% 30.33 in 10.0 mi NNW 9.2 mph - N/A   Clear
8:35 AM 42.8 °F 38.6 °F 15.8 °F 34% 30.33 in 10.0 mi North 6.9 mph - N/A   Clear
8:55 AM 44.6 °F 38.8 °F 15.8 °F 31% 30.33 in 10.0 mi NNW 11.5 mph - N/A   Clear
9:15 AM 46.4 °F 40.4 °F 15.8 °F 29% 30.34 in 10.0 mi NNW 13.8 mph - N/A   Clear
9:35 AM 46.4 °F 41.1 °F 15.8 °F 29% 30.34 in 10.0 mi NNW 11.5 mph - N/A   Clear
9:55 AM 46.4 °F 41.1 °F 15.8 °F 29% 30.34 in 10.0 mi North 11.5 mph - N/A   Clear
10:15 AM 48.2 °F - 15.8 °F 27% 30.34 in 10.0 mi North 11.5 mph - N/A   Clear
10:35 AM 48.2 °F - 15.8 °F 27% 30.34 in 10.0 mi North 9.2 mph - N/A   Clear
10:55 AM 50.0 °F - 17.6 °F 28% 30.34 in 10.0 mi NNW 8.1 mph - N/A   Clear
11:15 AM 51.8 °F - 17.6 °F 26% 30.33 in 10.0 mi NNW 10.4 mph - N/A   Clear
11:35 AM 53.6 °F - 17.6 °F 24% 30.33 in 10.0 mi North 8.1 mph - N/A   Clear
11:55 AM 53.6 °F - 17.6 °F 24% 30.33 in 10.0 mi North 10.4 mph - N/A   Clear
12:15 PM 53.6 °F - 17.6 °F 24% 30.32 in 10.0 mi North 12.7 mph 16.1 mph N/A   Clear
12:35 PM 55.4 °F - 17.6 °F 23% 30.32 in 10.0 mi North 10.4 mph 18.4 mph N/A   Clear
12:55 PM 57.2 °F - 19.4 °F 23% 30.31 in 10.0 mi North 13.8 mph - N/A   Clear
1:15 PM 57.2 °F - 19.4 °F 23% 30.30 in 10.0 mi North 13.8 mph 19.6 mph N/A   Clear
1:35 PM 57.2 °F - 19.4 °F 23% 30.29 in 10.0 mi North 15.0 mph 20.7 mph N/A   Clear
1:55 PM 57.2 °F - 19.4 °F 23% 30.28 in 10.0 mi North 15.0 mph 23.0 mph N/A   Clear
2:15 PM 59.0 °F - 19.4 °F 22% 30.28 in 10.0 mi North 16.1 mph 19.6 mph N/A   Clear
2:35 PM 59.0 °F - 19.4 °F 22% 30.28 in 10.0 mi North 16.1 mph 19.6 mph N/A   Clear
2:55 PM 60.8 °F - 19.4 °F 20% 30.27 in 10.0 mi North 15.0 mph 18.4 mph N/A   Clear
3:15 PM 60.8 °F - 19.4 °F 20% 30.26 in 10.0 mi North 15.0 mph 21.9 mph N/A   Clear
3:55 PM 60.8 °F - 19.4 °F 20% 30.25 in 10.0 mi North 13.8 mph - N/A   Clear
4:15 PM 60.8 °F - 19.4 °F 20% 30.25 in 10.0 mi North 16.1 mph - N/A   Clear
4:35 PM 59.0 °F - 19.4 °F 22% 30.24 in 10.0 mi North 16.1 mph 21.9 mph N/A   Clear
4:55 PM 59.0 °F - 19.4 °F 22% 30.23 in 10.0 mi North 15.0 mph 19.6 mph N/A   Clear
5:15 PM 57.2 °F - 19.4 °F 23% 30.23 in 10.0 mi North 13.8 mph - N/A   Clear
5:35 PM 57.2 °F - 19.4 °F 23% 30.23 in 10.0 mi North 15.0 mph - N/A   Clear
5:55 PM 55.4 °F - 17.6 °F 23% 30.22 in 10.0 mi North 13.8 mph 18.4 mph N/A   Clear
6:15 PM 53.6 °F - 17.6 °F 24% 30.22 in 10.0 mi NNW 11.5 mph 17.3 mph N/A   Clear
6:35 PM 51.8 °F - 17.6 °F 26% 30.23 in 10.0 mi NW 11.5 mph - N/A   Clear
6:55 PM 51.8 °F - 19.4 °F 28% 30.23 in 10.0 mi NW 12.7 mph 18.4 mph N/A   Clear
7:15 PM 51.8 °F - 19.4 °F 28% 30.24 in 10.0 mi NW 17.3 mph 20.7 mph N/A   Clear
7:35 PM 51.8 °F - 17.6 °F 26% 30.24 in 10.0 mi NW 13.8 mph 21.9 mph N/A   Clear
7:55 PM 50.0 °F - 17.6 °F 28% 30.23 in 10.0 mi NW 16.1 mph 23.0 mph N/A   Clear
8:15 PM 51.8 °F - 17.6 °F 26% 30.23 in 10.0 mi NNW 13.8 mph 20.7 mph N/A   Clear
8:35 PM 50.0 °F - 17.6 °F 28% 30.23 in 10.0 mi NNW 16.1 mph - N/A   Clear
8:55 PM 50.0 °F - 17.6 °F 28% 30.23 in 10.0 mi NNW 13.8 mph - N/A   Clear
9:15 PM 48.2 °F - 17.6 °F 30% 30.24 in 10.0 mi NW 16.1 mph 21.9 mph N/A   Clear
9:35 PM 48.2 °F - 17.6 °F 30% 30.24 in 10.0 mi NW 8.1 mph - N/A   Clear
9:55 PM 46.4 °F 41.9 °F 17.6 °F 32% 30.25 in 10.0 mi WNW 9.2 mph - N/A   Clear
10:15 PM 46.4 °F 41.5 °F 17.6 °F 32% 30.24 in 10.0 mi NNW 10.4 mph - N/A   Clear
10:35 PM 44.6 °F 40.2 °F 17.6 °F 34% 30.25 in 10.0 mi NNW 8.1 mph - N/A   Clear
10:55 PM 42.8 °F 38.6 °F 15.8 °F 34% 30.24 in 10.0 mi NW 6.9 mph - N/A   Clear
11:15 PM 41.0 °F 38.0 °F 17.6 °F 39% 30.24 in 10.0 mi ENE 4.6 mph - N/A   Clear
11:35 PM 39.2 °F 35.9 °F 17.6 °F 42% 30.23 in 10.0 mi North 4.6 mph - N/A   Clear
11:55 PM 35.6 °F - 14.0 °F 41% 30.23 in 10.0 mi Calm Calm - N/A   Clear